Latest Coastal Weather Observations for Coles Point

IDS60701

Issued at 2:15 pm CDT Thursday 23 October 2014 (issued every 10 minutes, with the page automatically refreshed every 10 minutes)

About coastal observations | Map of coastal stations | Coastal observations for SA | Marine services | Other Formats
Station Details ID: 018191 Name: COLES POINT Lat: -34.37 Lon: 135.37 Height: 28.0 m
Data from the previous 72 hours. | See also: Recent months at Coles Point
Date/Time
CDT
Temp

°C
Wind Pressure Rain
since 9am
mm
Weather Cloud Vis
km
Sea
Height
m
Swell
Dir
 
Speed
knots
Gust
knots
hPa Trend Height
m
Period
s
Dir
23/02:00pm 21.7 SW 8 10 1015.5 - 0.0 - - - - - - -
23/01:30pm 20.6 SW 8 10 1016.0 - 0.0 - - - - - - -
23/01:00pm 20.4 SW 9 11 1016.6 - 0.0 - - - - - - -
23/12:30pm 19.6 SW 9 10 1017.2 - 0.0 - - - - - - -
23/12:00pm 19.2 WSW 6 11 1017.7 - 0.0 - - - - - - -
23/11:30am 20.0 NE 7 13 1017.5 - 0.0 - - - - - - -
23/11:00am 19.4 ENE 8 11 1017.9 - 0.0 - - - - - - -
23/10:30am 18.6 E 8 12 1018.2 - 0.0 - - - - - - -
23/10:00am 17.4 E 6 9 1018.6 - 0.0 - - - - - - -
23/09:30am 16.8 E 7 10 1018.8 - 0.0 - - - - - - -
23/09:00am 16.0 E 7 10 1018.7 - 0.0 - - - - - - -
23/08:30am 14.7 SE 5 8 1018.8 - 0.0 - - - - - - -
23/08:00am 14.0 E 5 8 1019.1 - 0.0 - - - - - - -
23/07:30am 12.4 E 3 4 1018.9 - 0.0 - - - - - - -
23/07:00am 10.3 E 1 3 1018.9 - 0.0 - - - - - - -
23/06:30am 9.6 CALM 0 0 1018.9 - 0.0 - - - - - - -
23/06:00am 11.0 CALM 0 0 1018.7 - 0.0 - - - - - - -
23/05:30am 10.5 CALM 0 0 1018.9 - 0.0 - - - - - - -
23/05:00am 11.8 E 3 4 1018.8 - 0.0 - - - - - - -
23/04:30am 12.9 ESE 2 3 1018.7 - 0.0 - - - - - - -
23/04:00am 14.0 ESE 6 8 1018.8 - 0.0 - - - - - - -
23/03:30am 14.3 ESE 5 8 1019.4 - 0.0 - - - - - - -
23/03:00am 14.3 SE 6 10 1019.7 - 0.0 - - - - - - -
23/02:30am 14.2 SE 6 8 1020.1 - 0.0 - - - - - - -
23/02:00am 14.1 SE 5 7 1020.4 - 0.0 - - - - - - -
23/01:30am 14.1 ESE 8 13 1020.4 - 0.0 - - - - - - -
23/01:00am 14.2 SE 8 10 1020.8 - 0.0 - - - - - - -
23/12:30am 14.3 SE 10 13 1021.0 - 0.0 - - - - - - -
23/12:00am 14.4 SSE 11 15 1021.1 - 0.0 - - - - - - -
 
Date/Time
CDT
Temp

°C
Wind Pressure Rain
since 9am
mm
Weather Cloud Vis
km
Sea
Height
m
Swell
Dir
 
Speed
knots
Gust
knots
hPa Trend Height
m
Period
s
Dir
22/11:30pm 14.3 SSE 8 12 1021.5 - 0.0 - - - - - - -
22/11:00pm 14.2 SSE 11 16 1021.4 - 0.0 - - - - - - -
22/10:30pm 14.4 SSE 9 13 1021.5 - 0.0 - - - - - - -
22/10:00pm 14.2 SSE 10 14 1021.6 - 0.0 - - - - - - -
22/09:30pm 13.9 SSE 7 12 1021.3 - 0.0 - - - - - - -
22/09:00pm 14.2 SSE 9 13 1021.0 - 0.0 - - - - - - -
22/08:30pm 14.3 S 11 17 1020.9 - 0.0 - - - - - - -
22/08:00pm 14.5 S 7 10 1020.8 - 0.0 - - - - - - -
22/07:30pm 15.1 S 9 12 1020.8 - 0.0 - - - - - - -
22/07:00pm 15.9 S 11 15 1020.6 - 0.0 - - - - - - -
22/06:30pm 16.2 S 13 18 1020.7 - 0.0 - - - - - - -
22/06:00pm 16.8 S 14 19 1020.5 - 0.0 - - - - - - -
22/05:30pm 16.9 S 14 19 1020.5 - 0.0 - - - - - - -
22/05:00pm 17.8 S 15 20 1020.3 - 0.0 - - - - - - -
22/04:30pm 19.1 S 15 20 1020.3 - 0.0 - - - - - - -
22/04:00pm 18.6 S 15 20 1020.2 - 0.0 - - - - - - -
22/03:30pm 19.9 S 14 20 1020.1 - 0.0 - - - - - - -
22/03:00pm 18.7 S 15 20 1020.3 - 0.0 - - - - - - -
22/02:30pm 18.7 S 15 19 1020.4 - 0.0 - - - - - - -
22/02:00pm 18.9 S 14 19 1020.8 - 0.0 - - - - - - -
22/01:30pm 18.2 S 15 20 1020.9 - 0.0 - - - - - - -
22/01:00pm 18.2 S 15 20 1021.1 - 0.0 - - - - - - -
22/12:30pm 17.7 S 12 16 1021.4 - 0.0 - - - - - - -
22/12:00pm 17.7 S 13 17 1021.2 - 0.0 - - - - - - -
22/11:30am 17.2 S 13 20 1021.2 - 0.0 - - - - - - -
22/11:00am 16.2 S 13 18 1021.3 - 0.0 - - - - - - -
22/10:30am 16.0 S 12 17 1021.3 - 0.0 - - - - - - -
22/10:00am 15.7 S 13 18 1021.3 - 0.0 - - - - - - -
22/09:30am 15.4 S 13 17 1020.8 - 0.0 - - - - - - -
22/09:00am 15.3 S 12 16 1020.5 - 0.0 - - - - - - -
22/08:30am 15.0 S 10 15 1020.2 - 0.0 - - - - - - -
22/08:00am 14.9 S 10 13 1019.8 - 0.0 - - - - - - -
22/07:30am 14.8 SSW 12 17 1019.7 - 0.0 - - - - - - -
22/07:00am 14.8 S 11 16 1019.4 - 0.0 - - - - - - -
22/06:30am 14.7 SSW 11 16 1019.1 - 0.0 - - - - - - -
22/06:00am 14.7 S 9 15 1018.9 - 0.0 - - - - - - -
22/05:30am 15.1 S 10 14 1018.6 - 0.0 - - - - - - -
22/05:00am 15.6 S 7 11 1018.5 - 0.0 - - - - - - -
22/04:30am 15.7 S 8 13 1018.3 - 0.0 - - - - - - -
22/04:00am 15.7 S 9 13 1018.2 - 0.0 - - - - - - -
22/03:30am 15.9 SSW 11 16 1018.1 - 0.0 - - - - - - -
22/03:00am 15.8 S 6 8 1018.2 - 0.0 - - - - - - -
22/02:30am 16.3 S 7 11 1018.2 - 0.0 - - - - - - -
22/02:00am 16.6 SSW 8 12 1018.1 - 0.0 - - - - - - -
22/01:30am 16.9 S 5 8 1018.2 - 0.0 - - - - - - -
22/01:00am 16.8 SSW 4 7 1018.5 - 0.0 - - - - - - -
22/12:30am 17.6 S 5 8 1018.4 - 0.0 - - - - - - -
22/12:00am 17.8 SSW 10 16 1018.5 - 0.0 - - - - - - -
 
Date/Time
CDT
Temp

°C
Wind Pressure Rain
since 9am
mm
Weather Cloud Vis
km
Sea
Height
m
Swell
Dir
 
Speed
knots
Gust
knots
hPa Trend Height
m
Period
s
Dir
21/11:30pm 18.2 S 11 15 1018.5 - 0.0 - - - - - - -
21/11:00pm 18.3 S 10 13 1018.6 - 0.0 - - - - - - -
21/10:30pm 18.7 SSW 13 17 1018.4 - 0.0 - - - - - - -
21/10:00pm 18.1 SSW 12 16 1018.3 - 0.0 - - - - - - -
21/09:30pm 18.7 SW 8 11 1017.2 - 0.0 - - - - - - -
21/09:00pm 21.6 SSE 6 7 1016.3 - 0.0 - - - - - - -
21/08:30pm 23.3 S 6 9 1016.0 - 0.0 - - - - - - -
21/08:00pm 22.4 S 4 7 1015.5 - 0.0 - - - - - - -
21/07:30pm 23.3 S 5 6 1015.2 - 0.0 - - - - - - -
21/07:00pm 24.8 S 5 8 1014.9 - 0.0 - - - - - - -
21/06:30pm 25.5 S 7 10 1015.0 - 0.0 - - - - - - -
21/06:00pm 26.7 S 6 9 1014.9 - 0.0 - - - - - - -
21/05:30pm 26.4 SSW 11 16 1014.8 - 0.0 - - - - - - -
21/05:00pm 25.4 SW 8 11 1015.0 - 0.0 - - - - - - -
21/04:30pm 26.0 SW 8 12 1014.8 - 0.0 - - - - - - -
21/04:18pm 27.6 W 11 15 1014.7 - 0.0 - - - - - - -
21/04:14pm 32.6 NNW 8 16 1014.7 - 0.0 - - - - - - -
21/04:00pm 33.9 NNE 20 32 1014.0 - 0.0 - - - - - - -
21/03:50pm 33.8 N 24 35 1014.1 - 0.0 - - - - - - -
21/03:30pm 33.0 NW 14 25 1014.9 - 0.0 - - - - - - -
21/03:00pm 32.8 N 15 23 1014.7 - 0.0 - - - - - - -
21/02:30pm 31.8 NNW 9 13 1015.5 - 0.0 - - - - - - -
21/02:00pm 31.6 NNW 9 13 1015.6 - 0.0 - - - - - - -
21/01:30pm 32.6 N 13 18 1015.7 - 0.0 - - - - - - -
21/01:00pm 33.1 N 12 17 1015.8 - 0.0 - - - - - - -
21/12:30pm 33.2 NNW 14 19 1016.5 - 0.0 - - - - - - -
21/12:00pm 31.9 N 14 20 1016.7 - 0.0 - - - - - - -
21/11:30am 32.0 N 14 19 1017.0 - 0.0 - - - - - - -
21/11:00am 31.5 N 10 12 1017.2 - 0.0 - - - - - - -
21/10:30am 28.0 N 6 9 1017.4 - 0.0 - - - - - - -
21/10:00am 26.2 NNE 5 9 1017.4 - 0.0 - - - - - - -
21/09:30am 25.0 NNE 6 9 1017.3 - 0.0 - - - - - - -
21/09:00am 24.7 N 4 7 1017.2 - 0.0 - - - - - - -
21/08:30am 22.5 N 6 8 1017.2 - 0.0 - - - - - - -
21/08:00am 24.5 N 12 18 1016.8 - 0.0 - - - - - - -
21/07:30am 22.1 NNE 12 14 1016.0 - 0.0 - - - - - - -
21/07:00am 21.7 NNE 12 13 1015.6 - 0.0 - - - - - - -
21/06:30am 20.9 NNE 11 13 1015.4 - 0.0 - - - - - - -
21/06:00am 20.5 NE 11 12 1015.1 - 0.0 - - - - - - -
21/05:30am 20.4 NE 11 13 1014.7 - 0.0 - - - - - - -
21/05:00am 20.4 NNE 9 11 1014.8 - 0.0 - - - - - - -
21/04:30am 21.2 NNE 9 11 1014.9 - 0.0 - - - - - - -
21/04:00am 21.2 NNE 8 11 1014.8 - 0.0 - - - - - - -
21/03:30am 22.1 NNE 10 13 1015.0 - 0.0 - - - - - - -
21/03:00am 21.6 NNE 9 12 1015.2 - 0.0 - - - - - - -
21/02:30am 21.4 N 9 11 1015.1 - 0.0 - - - - - - -
21/02:00am 21.3 N 9 12 1015.4 - 0.0 - - - - - - -
21/01:30am 20.7 N 8 10 1015.9 - 0.0 - - - - - - -
21/01:00am 20.6 N 9 10 1016.3 - 0.0 - - - - - - -
21/12:30am 21.2 N 8 10 1016.6 - 0.0 - - - - - - -
21/12:00am 23.4 NE 11 17 1016.8 - 0.0 - - - - - - -
 
Date/Time
CDT
Temp

°C
Wind Pressure Rain
since 9am
mm
Weather Cloud Vis
km
Sea
Height
m
Swell
Dir
 
Speed
knots
Gust
knots
hPa Trend Height
m
Period
s
Dir
20/11:30pm 24.8 ENE 13 20 1016.7 - 0.0 - - - - - - -
20/11:00pm 23.0 NNE 6 10 1017.2 - 0.0 - - - - - - -
20/10:30pm 21.6 N 8 11 1017.6 - 0.0 - - - - - - -
20/10:00pm 22.0 N 8 11 1017.8 - 0.0 - - - - - - -
20/09:30pm 23.8 NE 9 12 1018.0 - 0.0 - - - - - - -
20/09:00pm 24.0 ENE 12 15 1017.8 - 0.0 - - - - - - -
20/08:30pm 24.1 NE 11 15 1017.7 - 0.0 - - - - - - -
20/08:00pm 24.7 ENE 11 15 1017.5 - 0.0 - - - - - - -
20/07:30pm 25.3 E 8 10 1017.3 - 0.0 - - - - - - -
20/07:00pm 27.2 ESE 6 8 1017.2 - 0.0 - - - - - - -
20/06:30pm 28.5 E 5 10 1017.2 - 0.0 - - - - - - -
20/06:00pm 28.7 E 7 10 1017.0 - 0.0 - - - - - - -
20/05:30pm 29.5 E 10 15 1017.0 - 0.0 - - - - - - -
20/05:00pm 30.8 E 12 16 1016.9 - 0.0 - - - - - - -
20/04:30pm 32.0 E 13 17 1016.8 - 0.0 - - - - - - -
20/04:00pm 32.4 E 14 17 1016.9 - 0.0 - - - - - - -
20/03:30pm 33.3 ESE 11 15 1017.3 - 0.0 - - - - - - -
20/03:00pm 32.8 E 10 13 1017.8 - 0.0 - - - - - - -
20/02:30pm 32.1 E 9 14 1018.3 - 0.0 - - - - - - -

Other Formats:

Comma delimited format used in spreadsheet applications
http://www.bom.gov.au/fwo/IDS60701/IDS60701.94658.axf

JavaScript Object Notation format (JSON) in row-major order
http://www.bom.gov.au/fwo/IDS60701/IDS60701.94658.json